EZS27NE LSGG-LICC

Flight info

Callsign EZS27NE
Flight time N/A
Altitude 35000
Route MEDAM DCT NITAM DCT MOGBO DCT UNITA DCT VELAD DCT TINTO DCT POKAV DCT BETOT DCT RUVIP DCT RONAB DCT GIANO DCT BEKIV DCT ENEPA/N0394F190 M871 LIBRO
Aircraft A320/M-SDE3FGHIRWY/LB1

Departure

Time 2026-05-04 07:18
Airport Geneva International Airport (LSGG)

Arrival

Time N/A
Airport Catania-Fontanarossa Airport (LICC)
Time Latitude Longitude Altitude Speed Heading
2026-05-04 06:38 46.23131 6.10701 1403 ft 0 kts 135°
2026-05-04 07:06 46.23145 6.10680 1412 ft 2 kts 135°
2026-05-04 07:06 46.23158 6.10656 1410 ft 4 kts 82°
2026-05-04 07:07 46.23145 6.10625 1410 ft 4 kts 42°
2026-05-04 07:08 46.23134 6.10611 1404 ft 0 kts 46°
2026-05-04 07:10 46.23137 6.10615 1404 ft 3 kts 46°
2026-05-04 07:10 46.23175 6.10655 1403 ft 10 kts 11°
2026-05-04 07:12 46.23171 6.10307 1409 ft 6 kts 226°
2026-05-04 07:12 46.23131 6.10242 1409 ft 11 kts 230°
2026-05-04 07:12 46.23072 6.10150 1410 ft 14 kts 225°
2026-05-04 07:12 46.22998 6.10042 1409 ft 16 kts 224°
2026-05-04 07:13 46.22920 6.09927 1413 ft 15 kts 226°
2026-05-04 07:13 46.22857 6.09836 1416 ft 10 kts 224°
2026-05-04 07:13 46.22814 6.09774 1414 ft 7 kts 226°
2026-05-04 07:14 46.22779 6.09721 1420 ft 2 kts 226°
2026-05-04 07:14 46.22769 6.09706 1417 ft 3 kts 226°
2026-05-04 07:15 46.22760 6.09692 1417 ft 0 kts 226°
2026-05-04 07:15 46.22744 6.09669 1418 ft 10 kts 225°
2026-05-04 07:15 46.22683 6.09581 1420 ft 12 kts 225°
2026-05-04 07:15 46.22628 6.09498 1421 ft 10 kts 225°
2026-05-04 07:16 46.22583 6.09429 1422 ft 8 kts 232°
2026-05-04 07:16 46.22558 6.09360 1423 ft 9 kts 251°
2026-05-04 07:16 46.22549 6.09311 1423 ft 4 kts 255°
2026-05-04 07:16 46.22549 6.09245 1423 ft 11 kts 276°
2026-05-04 07:17 46.22594 6.09144 1424 ft 14 kts 345°
2026-05-04 07:17 46.22658 6.09214 1426 ft 12 kts 45°
2026-05-04 07:17 46.22835 6.09472 1423 ft 72 kts 45°
2026-05-04 07:17 46.23344 6.10219 1413 ft 133 kts 45°
2026-05-04 07:18 46.24111 6.11353 1437 ft 176 kts 47°
2026-05-04 07:18 46.24964 6.12664 1973 ft 183 kts 45°
2026-05-04 07:18 46.25869 6.14028 2574 ft 194 kts 45°
2026-05-04 07:18 46.26831 6.15476 3152 ft 206 kts 46°
2026-05-04 07:19 46.27883 6.17032 3519 ft 227 kts 45°
2026-05-04 07:19 46.29056 6.18731 3890 ft 251 kts 45°
2026-05-04 07:19 46.30307 6.20544 4522 ft 261 kts 46°
2026-05-04 07:19 46.31603 6.22426 5332 ft 266 kts 46°
2026-05-04 07:20 46.32920 6.24341 6124 ft 272 kts 47°
2026-05-04 07:20 46.34265 6.26302 6872 ft 277 kts 47°
2026-05-04 07:20 46.35584 6.28374 7571 ft 282 kts 59°
2026-05-04 07:20 46.36198 6.31027 8241 ft 280 kts 93°
2026-05-04 07:22 46.24645 6.33147 11858 ft 332 kts 200°
2026-05-04 07:22 46.22453 6.32033 12491 ft 337 kts 200°
2026-05-04 07:23 46.20190 6.31061 13173 ft 341 kts 193°
2026-05-04 07:23 46.17813 6.30703 13855 ft 347 kts 185°
2026-05-04 07:23 46.15386 6.30556 14450 ft 350 kts 185°
2026-05-04 07:23 46.12941 6.30416 15030 ft 354 kts 185°
2026-05-04 07:24 46.10461 6.30275 15602 ft 357 kts 185°
2026-05-04 07:24 46.07993 6.30137 16161 ft 361 kts 185°
2026-05-04 07:24 46.05470 6.29995 16702 ft 365 kts 184°
2026-05-04 07:24 46.02920 6.29850 17263 ft 368 kts 184°
2026-05-04 07:25 46.00352 6.29699 17826 ft 371 kts 184°
2026-05-04 07:26 45.82671 6.35749 21308 ft 405 kts 147°
2026-05-04 07:27 45.80403 6.38165 21780 ft 408 kts 147°
2026-05-04 07:27 45.78117 6.40588 22229 ft 410 kts 147°
2026-05-04 07:27 45.75810 6.43027 22679 ft 413 kts 147°
2026-05-04 07:27 45.73490 6.45478 23114 ft 416 kts 147°
2026-05-04 07:28 45.71153 6.47947 23540 ft 418 kts 147°
2026-05-04 07:28 45.68804 6.50426 23847 ft 421 kts 147°
2026-05-04 07:28 45.66470 6.52890 24162 ft 423 kts 147°
2026-05-04 07:28 45.64069 6.55422 24514 ft 424 kts 147°
2026-05-04 07:29 45.61690 6.57923 24881 ft 426 kts 147°
2026-05-04 07:29 45.59297 6.60436 25237 ft 427 kts 147°
2026-05-04 07:29 45.56898 6.62958 25593 ft 429 kts 147°
2026-05-04 07:29 45.54521 6.65461 25937 ft 431 kts 147°
2026-05-04 07:30 45.52103 6.68003 26274 ft 433 kts 147°
2026-05-04 07:30 45.49666 6.70557 26603 ft 435 kts 147°
2026-05-04 07:30 45.47224 6.73111 26932 ft 437 kts 147°
2026-05-04 07:30 45.44763 6.75674 27245 ft 438 kts 148°
2026-05-04 07:31 45.42274 6.78217 27522 ft 441 kts 148°
2026-05-04 07:31 45.39765 6.80733 27801 ft 442 kts 149°
2026-05-04 07:33 45.22501 6.99467 29859 ft 452 kts 139°
2026-05-04 07:33 45.20250 7.02576 30233 ft 451 kts 140°
2026-05-04 07:33 45.18003 7.05663 30559 ft 450 kts 140°
2026-05-04 07:33 45.15754 7.08739 30858 ft 449 kts 140°
2026-05-04 07:34 45.13501 7.11819 31137 ft 449 kts 140°
2026-05-04 07:34 45.11276 7.14918 31400 ft 450 kts 136°
2026-05-04 07:34 45.09303 7.18392 31631 ft 455 kts 129°